Regional Weather Roundup
Issued by NWS

Home | Current Version | Previous Version | Graphics & Text | Print | Product List | Glossary Off
Versions: 1 2 3 4 5 6 7 8 9 10 11 12 13 14 15 16 17 18 19 20 21 22 23 24 25 26 27 28 29 30 31 32 33 34 35 36 37 38 39 40 41 42 43 44 45 46 47 48 49 50

000
ASUS43 KLSX 240807
RWRMO

WEATHER SUMMARY FOR MISSOURI
NATIONAL WEATHER SERVICE SPRINGFIELD MO
300 AM CDT THU MAY 24 2018

NOTE: "FAIR" INDICATES FEW OR NO CLOUDS BELOW 12,000 FEET WITH NO
       SIGNIFICANT WEATHER AND/OR OBSTRUCTIONS TO VISIBILITY.
       CURRENT SKY AND/OR WEATHER CONDITIONS ARE NOT AVAILABLE FOR
       CHILLICOTHE AND FARMINGTON.

MOZ001>031-035>038-043-044-053-054-240900-
...NORTHERN AND WESTERN MISSOURI...

CITY           SKY/WX    TMP DP  RH WIND       PRES   REMARKS
KANSAS CTY INT CLOUDY    67  63  87 S7        30.07S
KANSAS C DTWN  MOCLDY    71  63  75 S10       30.06S
LEE`S SUMMIT   CLEAR     67  64  90 S7        30.08F
ST JOSEPH      CLOUDY    69  65  86 SE3       30.07R
CHILLICOTHE      N/A     70  65  84 CALM      30.10S
KIRKSVILLE     CLEAR    N/A N/A N/A SE6       30.12S

$$
MOZ066>068-077>081-088>096-101>105-240900-
...SOUTHWEST MISSOURI...

CITY           SKY/WX    TMP DP  RH WIND       PRES   REMARKS
SPRINGFIELD    CLOUDY    67  63  87 SE8       30.09F
JOPLIN         CLOUDY    66  65  96 E6        30.08F
BRANSON        PTCLDY    63  63 100 CALM      30.13S FOG

$$
MOZ032>034-039>042-045>050-055>058-069>072-240900-
...CENTRAL MISSOURI...

CITY           SKY/WX    TMP DP  RH WIND       PRES   REMARKS
COLUMBIA       CLOUDY    69  65  86 S3        30.11F
JEFFERSON CITY CLEAR     68  66  93 E5        30.10F
ROLLA          CLEAR     66  64  93 CALM      30.13F
SEDALIA        CLOUDY    67  67 100 SE5       30.12R
WHITEMAN AFB   PTCLDY    67  65  94 SE6       30.06S
WARRENSBURG    PTCLDY    64  63  94 SE5       30.09S
OSAGE BEACH    CLEAR     66  65  96 SE3       30.12F

$$
MOZ051-052-059>065-240900-
...EAST CENTRAL MISSOURI...

CITY           SKY/WX    TMP DP  RH WIND       PRES   REMARKS
ST LOUIS INTL  PTCLDY    70  64  81 E5        30.11F
SPIRIT OF STL  CLEAR     66  64  93 CALM      30.09F
ST CHARLES     CLEAR     67  65  93 CALM      30.10S

$$
MOZ072>076-082>087-097>100-106>115-240900-
...SOUTH CENTRAL AND SOUTHEAST MISSOURI...

CITY           SKY/WX    TMP DP  RH WIND       PRES   REMARKS
CAPE GIRARDEAU FAIR      66  64  93 E3        30.09S
FARMINGTON     PTCLDY    64  63  96 CALM      30.13F
POPLAR BLUFF   FAIR      69  68  96 CALM      30.08F
WEST PLAINS    CLOUDY    66  64  93 N3        30.13F

$$



USA.gov is the U.S. government's official web portal to all federal, state and local government web resources and services.